Time,TemperatureF,DewpointF,PressureIn,WindDirection,WindDirectionDegrees,WindSpeedMPH,WindSpeedGustMPH,Humidity,HourlyPrecipIn,Conditions,Clouds,dailyrainin,SoftwareType,DateUTC
2013-01-17 00:13:00,50.5,50.3,29.74,SSE,157,0.0,-999.0,99,-99.99,,,0.00,Acu-Link.com,2013-01-17 05:13:00,
2013-01-17 00:28:00,50.5,50.3,29.75,NNE,22,0.0,-999.0,99,-99.99,,,0.00,Acu-Link.com,2013-01-17 05:28:00,
2013-01-17 00:44:00,50.7,50.4,29.74,SSE,157,0.0,-999.0,99,-99.99,,,0.01,Acu-Link.com,2013-01-17 05:44:00,
2013-01-17 00:59:00,50.7,50.4,29.74,North,0,0.0,-999.0,99,-99.99,,,0.02,Acu-Link.com,2013-01-17 05:59:00,
2013-01-17 01:14:00,50.7,50.4,29.75,NNE,22,0.0,-999.0,99,-99.99,,,0.02,Acu-Link.com,2013-01-17 06:14:00,
2013-01-17 01:30:00,50.9,50.6,29.75,NE,45,0.0,-999.0,99,-99.99,,,0.02,Acu-Link.com,2013-01-17 06:30:00,
2013-01-17 01:45:00,50.9,50.6,29.75,NNW,337,0.0,-999.0,99,-99.99,,,0.04,Acu-Link.com,2013-01-17 06:45:00,
2013-01-17 02:00:00,50.9,50.6,29.74,NE,45,0.0,-999.0,99,-99.99,,,0.06,Acu-Link.com,2013-01-17 07:00:00,
2013-01-17 02:16:00,50.9,50.6,29.75,NNE,22,1.6,-999.0,99,-99.99,,,0.07,Acu-Link.com,2013-01-17 07:16:00,
2013-01-17 02:31:00,50.9,50.6,29.75,NNW,337,0.0,-999.0,99,-99.99,,,0.07,Acu-Link.com,2013-01-17 07:31:00,
2013-01-17 02:46:00,50.9,50.6,29.75,East,90,0.0,-999.0,99,-99.99,,,0.08,Acu-Link.com,2013-01-17 07:46:00,
2013-01-17 03:01:00,50.9,50.6,29.74,ESE,112,0.0,-999.0,99,-99.99,,,0.08,Acu-Link.com,2013-01-17 08:01:00,
2013-01-17 03:17:00,50.9,50.6,29.74,ESE,112,0.0,-999.0,99,-99.99,,,0.09,Acu-Link.com,2013-01-17 08:17:00,
2013-01-17 03:32:00,50.9,50.6,29.74,NNE,22,0.0,-999.0,99,-99.99,,,0.11,Acu-Link.com,2013-01-17 08:32:00,
2013-01-17 03:47:00,50.9,50.6,29.74,ESE,112,0.0,-999.0,99,-99.99,,,0.12,Acu-Link.com,2013-01-17 08:47:00,
2013-01-17 04:02:00,50.9,50.6,29.73,East,90,0.0,-999.0,99,-99.99,,,0.14,Acu-Link.com,2013-01-17 09:02:00,
2013-01-17 04:18:00,50.9,50.6,29.73,ENE,67,0.0,-999.0,99,-99.99,,,0.14,Acu-Link.com,2013-01-17 09:18:00,
2013-01-17 04:33:00,50.9,50.6,29.73,North,0,0.0,-999.0,99,-99.99,,,0.14,Acu-Link.com,2013-01-17 09:33:00,
2013-01-17 04:48:00,50.9,50.6,29.72,NW,315,0.0,-999.0,99,-99.99,,,0.14,Acu-Link.com,2013-01-17 09:48:00,
2013-01-17 05:04:00,50.9,50.6,29.73,WNW,292,2.2,-999.0,99,-99.99,,,0.18,Acu-Link.com,2013-01-17 10:04:00,
2013-01-17 05:19:00,50.7,50.4,29.74,North,0,1.1,-999.0,99,-99.99,,,0.20,Acu-Link.com,2013-01-17 10:19:00,
2013-01-17 05:34:00,50.5,50.3,29.74,NNW,337,1.6,-999.0,99,-99.99,,,0.26,Acu-Link.com,2013-01-17 10:34:00,
2013-01-17 05:50:00,50.5,50.3,29.75,NNW,337,2.2,-999.0,99,-99.99,,,0.32,Acu-Link.com,2013-01-17 10:50:00,
2013-01-17 06:05:00,50.4,50.1,29.75,ENE,67,1.1,-999.0,99,-99.99,,,0.33,Acu-Link.com,2013-01-17 11:05:00,
2013-01-17 06:20:00,50.4,50.1,29.75,NNE,22,0.0,-999.0,99,-99.99,,,0.33,Acu-Link.com,2013-01-17 11:20:00,
2013-01-17 06:35:00,50.2,49.9,29.75,NNW,337,1.1,-999.0,99,-99.99,,,0.34,Acu-Link.com,2013-01-17 11:35:00,
2013-01-17 06:50:00,50.2,49.9,29.77,NNW,337,2.2,-999.0,99,-99.99,,,0.34,Acu-Link.com,2013-01-17 11:50:00,
2013-01-17 07:06:00,50.0,49.7,29.77,NNE,22,2.2,-999.0,99,-99.99,,,0.35,Acu-Link.com,2013-01-17 12:06:00,
2013-01-17 07:21:00,50.0,49.7,29.77,NNE,22,2.2,-999.0,99,-99.99,,,0.37,Acu-Link.com,2013-01-17 12:21:00,
2013-01-17 07:36:00,50.0,49.7,29.77,NE,45,1.6,-999.0,99,-99.99,,,0.38,Acu-Link.com,2013-01-17 12:36:00,
2013-01-17 07:52:00,49.8,49.6,29.78,NNE,22,2.7,-999.0,99,-99.99,,,0.38,Acu-Link.com,2013-01-17 12:52:00,
2013-01-17 08:07:00,49.8,49.6,29.78,NNE,22,3.1,-999.0,99,-99.99,,,0.39,Acu-Link.com,2013-01-17 13:07:00,
2013-01-17 08:22:00,49.8,49.6,29.78,NNE,22,0.0,-999.0,99,-99.99,,,0.39,Acu-Link.com,2013-01-17 13:22:00,
2013-01-17 08:38:00,50.0,49.7,29.79,NNE,22,1.6,-999.0,99,-99.99,,,0.40,Acu-Link.com,2013-01-17 13:38:00,
2013-01-17 08:53:00,50.2,49.9,29.80,NW,315,1.6,-999.0,99,-99.99,,,0.41,Acu-Link.com,2013-01-17 13:53:00,
2013-01-17 09:08:00,50.2,49.9,29.81,NNE,22,1.6,-999.0,99,-99.99,,,0.43,Acu-Link.com,2013-01-17 14:08:00,
2013-01-17 09:23:00,50.4,50.1,29.82,North,0,2.2,-999.0,99,-99.99,,,0.45,Acu-Link.com,2013-01-17 14:23:00,
2013-01-17 09:39:00,50.5,50.3,29.81,NNW,337,1.6,-999.0,99,-99.99,,,0.47,Acu-Link.com,2013-01-17 14:39:00,
2013-01-17 09:54:00,50.5,50.3,29.81,NE,45,2.2,-999.0,99,-99.99,,,0.47,Acu-Link.com,2013-01-17 14:54:00,
2013-01-17 10:09:00,50.7,50.4,29.80,NE,45,1.6,-999.0,99,-99.99,,,0.47,Acu-Link.com,2013-01-17 15:09:00,
2013-01-17 10:24:00,50.7,50.4,29.80,NW,315,1.6,-999.0,99,-99.99,,,0.48,Acu-Link.com,2013-01-17 15:24:00,
2013-01-17 10:40:00,50.9,50.6,29.79,NE,45,3.1,-999.0,99,-99.99,,,0.48,Acu-Link.com,2013-01-17 15:40:00,
2013-01-17 10:55:00,51.1,50.8,29.79,North,0,2.7,-999.0,99,-99.99,,,0.48,Acu-Link.com,2013-01-17 15:55:00,
2013-01-17 11:10:00,50.9,50.6,29.80,NNE,22,3.1,-999.0,99,-99.99,,,0.48,Acu-Link.com,2013-01-17 16:10:00,
2013-01-17 11:26:00,50.9,50.6,29.78,NNE,22,2.2,-999.0,99,-99.99,,,0.48,Acu-Link.com,2013-01-17 16:26:00,
2013-01-17 11:41:00,50.9,50.6,29.77,ESE,112,2.7,-999.0,99,-99.99,,,0.48,Acu-Link.com,2013-01-17 16:41:00,
2013-01-17 11:56:00,50.9,50.6,29.76,NNE,22,2.2,-999.0,99,-99.99,,,0.50,Acu-Link.com,2013-01-17 16:56:00,
2013-01-17 12:11:00,50.7,50.4,29.76,NE,45,2.2,-999.0,99,-99.99,,,0.50,Acu-Link.com,2013-01-17 17:11:00,
2013-01-17 12:27:00,50.4,50.1,29.75,NNE,22,2.2,-999.0,99,-99.99,,,0.50,Acu-Link.com,2013-01-17 17:27:00,
2013-01-17 12:42:00,50.2,49.9,29.73,NE,45,2.2,-999.0,99,-99.99,,,0.50,Acu-Link.com,2013-01-17 17:42:00,
2013-01-17 12:57:00,50.0,49.7,29.73,NNE,22,3.1,-999.0,99,-99.99,,,0.50,Acu-Link.com,2013-01-17 17:57:00,
2013-01-17 13:12:00,50.0,49.7,29.72,NE,45,4.3,-999.0,99,-99.99,,,0.50,Acu-Link.com,2013-01-17 18:12:00,
2013-01-17 13:28:00,49.8,49.6,29.71,NE,45,2.7,-999.0,99,-99.99,,,0.50,Acu-Link.com,2013-01-17 18:28:00,
2013-01-17 13:43:00,49.8,49.6,29.71,NW,315,5.1,-999.0,99,-99.99,,,0.50,Acu-Link.com,2013-01-17 18:43:00,
2013-01-17 13:58:00,49.8,49.6,29.70,North,0,8.3,-999.0,99,-99.99,,,0.50,Acu-Link.com,2013-01-17 18:58:00,
2013-01-17 14:14:00,49.8,49.6,29.69,NE,45,2.7,-999.0,99,-99.99,,,0.50,Acu-Link.com,2013-01-17 19:14:00,
2013-01-17 14:29:00,49.6,49.4,29.69,NNE,22,2.2,-999.0,99,-99.99,,,0.50,Acu-Link.com,2013-01-17 19:29:00,
2013-01-17 14:44:00,49.6,49.4,29.68,NE,45,2.7,-999.0,99,-99.99,,,0.50,Acu-Link.com,2013-01-17 19:44:00,
2013-01-17 15:00:00,49.6,49.4,29.68,SSW,202,2.7,-999.0,99,-99.99,,,0.51,Acu-Link.com,2013-01-17 20:00:00,
2013-01-17 15:15:00,49.1,48.8,29.68,NE,45,8.3,-999.0,99,-99.99,,,0.51,Acu-Link.com,2013-01-17 20:15:00,
2013-01-17 15:30:00,48.7,48.5,29.69,WNW,292,4.3,-999.0,99,-99.99,,,0.51,Acu-Link.com,2013-01-17 20:30:00,
2013-01-17 15:45:00,47.8,47.6,29.69,NNE,22,4.7,-999.0,99,-99.99,,,0.51,Acu-Link.com,2013-01-17 20:45:00,
2013-01-17 16:01:00,47.3,47.0,29.69,NNW,337,2.7,-999.0,99,-99.99,,,0.51,Acu-Link.com,2013-01-17 21:01:00,
2013-01-17 16:16:00,46.9,46.7,29.69,ENE,67,2.7,-999.0,99,-99.99,,,0.51,Acu-Link.com,2013-01-17 21:16:00,
2013-01-17 16:31:00,46.8,46.5,29.68,NNW,337,1.6,-999.0,99,-99.99,,,0.51,Acu-Link.com,2013-01-17 21:31:00,
2013-01-17 16:47:00,46.4,46.1,29.70,NNE,22,3.8,-999.0,99,-99.99,,,0.51,Acu-Link.com,2013-01-17 21:47:00,
2013-01-17 17:02:00,45.3,45.1,29.69,NNW,337,7.8,-999.0,99,-99.99,,,0.56,Acu-Link.com,2013-01-17 22:02:00,
2013-01-17 17:17:00,44.8,44.5,29.71,NE,45,5.1,-999.0,99,-99.99,,,0.57,Acu-Link.com,2013-01-17 22:17:00,
2013-01-17 17:33:00,44.4,44.2,29.71,NNE,22,3.1,-999.0,99,-99.99,,,0.57,Acu-Link.com,2013-01-17 22:33:00,
2013-01-17 17:48:00,43.7,43.4,29.70,NNE,22,3.8,-999.0,99,-99.99,,,0.58,Acu-Link.com,2013-01-17 22:48:00,
2013-01-17 18:03:00,43.5,43.3,29.72,West,270,2.2,-999.0,99,-99.99,,,0.59,Acu-Link.com,2013-01-17 23:03:00,
2013-01-17 18:18:00,43.3,43.1,29.71,SSW,202,2.2,-999.0,99,-99.99,,,0.63,Acu-Link.com,2013-01-17 23:18:00,
2013-01-17 18:34:00,42.3,42.0,29.73,SW,225,4.3,-999.0,99,-99.99,,,0.66,Acu-Link.com,2013-01-17 23:34:00,
2013-01-17 18:49:00,40.8,40.6,29.77,East,90,4.3,-999.0,99,-99.99,,,0.76,Acu-Link.com,2013-01-17 23:49:00,
2013-01-17 19:04:00,40.3,40.0,29.75,NNE,22,8.3,-999.0,99,-99.99,,,0.76,Acu-Link.com,2013-01-18 00:04:00,
2013-01-17 19:20:00,39.6,39.3,29.74,NNE,22,3.8,-999.0,99,-99.99,,,0.79,Acu-Link.com,2013-01-18 00:20:00,
2013-01-17 19:35:00,39.4,39.1,29.74,East,90,4.3,-999.0,99,-99.99,,,0.83,Acu-Link.com,2013-01-18 00:35:00,
2013-01-17 19:50:00,39.2,38.9,29.72,NE,45,4.7,-999.0,99,-99.99,,,0.86,Acu-Link.com,2013-01-18 00:50:00,
2013-01-17 20:05:00,39.0,38.8,29.73,NE,45,2.7,-999.0,99,-99.99,,,0.90,Acu-Link.com,2013-01-18 01:05:00,
2013-01-17 20:21:00,38.8,38.6,29.72,NE,45,4.3,-999.0,99,-99.99,,,0.92,Acu-Link.com,2013-01-18 01:21:00,
2013-01-17 20:36:00,38.3,38.0,29.74,NNW,337,4.3,-999.0,99,-99.99,,,1.08,Acu-Link.com,2013-01-18 01:36:00,
2013-01-17 20:51:00,37.6,37.3,29.76,NE,45,5.1,-999.0,99,-99.99,,,1.13,Acu-Link.com,2013-01-18 01:51:00,
2013-01-17 21:06:00,35.8,35.5,29.77,NE,45,5.1,-999.0,99,-99.99,,,1.15,Acu-Link.com,2013-01-18 02:06:00,
2013-01-17 21:22:00,34.3,34.1,29.78,NNE,22,6.7,-999.0,99,-99.99,,,1.19,Acu-Link.com,2013-01-18 02:22:00,
2013-01-17 21:37:00,33.3,33.0,29.79,WNW,292,2.2,-999.0,99,-99.99,,,1.20,Acu-Link.com,2013-01-18 02:37:00,
2013-01-17 21:52:00,32.9,32.7,29.83,NNE,22,0.0,-999.0,99,-99.99,,,1.20,Acu-Link.com,2013-01-18 02:52:00,
2013-01-17 22:08:00,32.7,32.5,29.81,NNE,22,1.1,-999.0,99,-99.99,,,1.20,Acu-Link.com,2013-01-18 03:08:00,
2013-01-17 22:23:00,32.7,32.5,29.81,NNE,22,2.2,-999.0,99,-99.99,,,1.20,Acu-Link.com,2013-01-18 03:23:00,
2013-01-17 22:38:00,32.7,32.5,29.80,North,0,2.2,-999.0,99,-99.99,,,1.20,Acu-Link.com,2013-01-18 03:38:00,
2013-01-17 22:54:00,32.7,32.5,29.82,NNW,337,2.7,-999.0,99,-99.99,,,1.20,Acu-Link.com,2013-01-18 03:54:00,
2013-01-17 23:09:00,32.7,32.5,29.83,NE,45,0.0,-999.0,99,-99.99,,,1.21,Acu-Link.com,2013-01-18 04:09:00,
2013-01-17 23:24:00,32.7,32.5,29.85,NNE,22,1.6,-999.0,99,-99.99,,,1.24,Acu-Link.com,2013-01-18 04:24:00,
2013-01-17 23:39:00,32.9,32.7,29.87,NW,315,0.0,-999.0,99,-99.99,,,1.25,Acu-Link.com,2013-01-18 04:39:00,
2013-01-17 23:55:00,33.1,32.8,29.90,NNE,22,0.0,-999.0,99,-99.99,,,1.26,Acu-Link.com,2013-01-18 04:55:00,